Time,TemperatureF,DewpointF,PressureIn,WindDirection,WindDirectionDegrees,WindSpeedMPH,WindSpeedGustMPH,Humidity,HourlyPrecipIn,Conditions,Clouds,dailyrainin,SoftwareType,DateUTC
2013-01-18 00:00:00,31.4,28.0,30.01,NNE,18,0.0,2.0,87,0.00,,CLR,0.29,VWS V13.01,2013-01-18 05:00:00,
2013-01-18 00:01:00,31.4,28.0,30.01,NNE,18,0.0,0.0,87,0.00,,CLR,0.00,VWS V13.01,2013-01-18 05:01:00,
2013-01-18 00:06:00,31.5,28.1,30.01,NW,326,0.0,3.0,87,0.00,,CLR,0.00,VWS V13.01,2013-01-18 05:06:00,
2013-01-18 00:11:00,31.4,27.7,30.00,NW,326,0.0,3.0,86,0.00,,CLR,0.00,VWS V13.01,2013-01-18 05:11:00,
2013-01-18 00:16:00,31.4,27.7,30.00,NNW,334,0.0,3.0,86,0.00,,CLR,0.00,VWS V13.01,2013-01-18 05:16:00,
2013-01-18 00:21:00,31.4,27.7,30.00,NNW,336,0.0,3.0,86,0.00,,CLR,0.00,VWS V13.01,2013-01-18 05:21:00,
2013-01-18 00:26:00,31.4,27.4,30.01,NNW,340,0.0,3.0,85,0.00,,CLR,0.00,VWS V13.01,2013-01-18 05:26:00,
2013-01-18 00:31:00,31.5,27.5,30.02,NNW,340,0.0,0.0,85,0.00,,CLR,0.00,VWS V13.01,2013-01-18 05:31:00,
2013-01-18 00:36:00,31.5,27.5,30.02,NNW,340,0.0,2.0,85,0.00,,OVC032,0.00,VWS V13.01,2013-01-18 05:36:00,
2013-01-18 00:41:00,31.5,27.5,30.02,NNW,340,0.0,2.0,85,0.00,,OVC032,0.00,VWS V13.01,2013-01-18 05:41:00,
2013-01-18 00:46:00,31.4,27.4,30.03,NNW,340,0.0,2.0,85,0.00,,OVC032,0.00,VWS V13.01,2013-01-18 05:46:00,
2013-01-18 00:51:00,31.4,27.4,30.02,NNW,340,0.0,2.0,85,0.00,,OVC032,0.00,VWS V13.01,2013-01-18 05:51:00,
2013-01-18 00:56:00,31.4,27.4,30.02,NNW,340,0.0,2.0,85,0.00,,OVC032,0.00,VWS V13.01,2013-01-18 05:56:00,
2013-01-18 01:01:00,31.4,27.1,30.02,North,4,2.0,5.0,84,0.00,,OVC032,0.00,VWS V13.01,2013-01-18 06:01:00,
2013-01-18 01:06:00,31.3,27.0,30.03,North,0,1.0,5.0,84,0.00,,OVC032,0.00,VWS V13.01,2013-01-18 06:06:00,
2013-01-18 01:11:00,31.3,26.8,30.04,North,0,0.0,5.0,83,0.00,,OVC032,0.00,VWS V13.01,2013-01-18 06:11:00,
2013-01-18 01:16:00,31.1,26.5,30.05,North,0,0.0,5.0,83,0.00,,OVC032,0.00,VWS V13.01,2013-01-18 06:16:00,
2013-01-18 01:21:00,31.0,26.5,30.05,North,0,0.0,5.0,83,0.00,,OVC032,0.00,VWS V13.01,2013-01-18 06:21:00,
2013-01-18 01:26:00,31.0,26.5,30.06,North,0,0.0,5.0,83,0.00,,OVC032,0.00,VWS V13.01,2013-01-18 06:26:00,
2013-01-18 01:31:00,30.8,26.3,30.06,North,0,0.0,1.0,83,0.00,,OVC032,0.00,VWS V13.01,2013-01-18 06:31:00,
2013-01-18 01:36:00,30.8,26.3,30.06,North,0,0.0,2.0,83,0.00,,OVC032,0.00,VWS V13.01,2013-01-18 06:36:00,
2013-01-18 01:41:00,30.7,26.5,30.06,North,0,0.0,2.0,84,0.00,,OVC032,0.00,VWS V13.01,2013-01-18 06:41:00,
2013-01-18 01:46:00,30.5,26.0,30.07,North,0,0.0,2.0,83,0.00,,OVC032,0.00,VWS V13.01,2013-01-18 06:46:00,
2013-01-18 01:51:00,30.4,26.1,30.06,North,0,0.0,2.0,84,0.00,,OVC032,0.00,VWS V13.01,2013-01-18 06:51:00,
2013-01-18 01:56:00,30.3,26.1,30.07,North,0,0.0,2.0,84,0.00,,OVC032,0.00,VWS V13.01,2013-01-18 06:56:00,
2013-01-18 02:01:00,30.2,26.0,30.06,North,1,0.0,1.0,84,0.00,,OVC032,0.00,VWS V13.01,2013-01-18 07:01:00,
2013-01-18 02:06:00,30.0,25.8,30.06,North,1,1.0,2.0,84,0.00,,OVC032,0.00,VWS V13.01,2013-01-18 07:06:00,
2013-01-18 02:11:00,29.9,26.0,30.07,North,1,1.0,2.0,85,0.00,,OVC032,0.00,VWS V13.01,2013-01-18 07:11:00,
2013-01-18 02:16:00,29.8,25.9,30.07,North,1,1.0,2.0,85,0.00,,OVC032,0.00,VWS V13.01,2013-01-18 07:16:00,
2013-01-18 02:21:00,29.8,25.9,30.07,North,0,2.0,2.0,85,0.00,,OVC032,0.00,VWS V13.01,2013-01-18 07:21:00,
2013-01-18 02:26:00,29.8,25.9,30.07,North,0,1.0,2.0,85,0.00,,OVC032,0.00,VWS V13.01,2013-01-18 07:26:00,
2013-01-18 02:31:00,29.7,25.8,30.07,North,0,0.0,0.0,85,0.00,,OVC032,0.00,VWS V13.01,2013-01-18 07:31:00,
2013-01-18 02:36:00,29.7,25.5,30.07,North,0,0.0,1.0,84,0.00,,OVC032,0.00,VWS V13.01,2013-01-18 07:36:00,
2013-01-18 02:41:00,29.7,25.8,30.08,North,0,0.0,1.0,85,0.00,,OVC032,0.00,VWS V13.01,2013-01-18 07:41:00,
2013-01-18 02:46:00,29.6,25.6,30.08,North,0,0.0,1.0,85,0.00,,OVC032,0.00,VWS V13.01,2013-01-18 07:46:00,
2013-01-18 02:51:00,29.6,25.6,30.09,North,0,2.0,2.0,85,0.00,,OVC032,0.00,VWS V13.01,2013-01-18 07:51:00,
2013-01-18 02:56:00,29.6,25.6,30.10,NW,326,3.0,4.0,85,0.00,,OVC032,0.00,VWS V13.01,2013-01-18 07:56:00,
2013-01-18 03:01:00,29.7,25.8,30.10,WNW,294,6.0,7.0,85,0.00,,CLR,0.00,VWS V13.01,2013-01-18 08:01:00,
2013-01-18 03:06:00,29.6,24.5,30.11,WNW,297,6.0,10.0,81,0.00,,CLR,0.00,VWS V13.01,2013-01-18 08:06:00,
2013-01-18 03:11:00,29.5,23.5,30.11,NW,321,9.0,10.0,78,0.00,,CLR,0.00,VWS V13.01,2013-01-18 08:11:00,
2013-01-18 03:16:00,29.3,23.0,30.12,NW,316,3.0,10.0,77,0.00,,CLR,0.00,VWS V13.01,2013-01-18 08:16:00,
2013-01-18 03:21:00,29.2,22.9,30.12,WNW,294,3.0,10.0,77,0.00,,CLR,0.00,VWS V13.01,2013-01-18 08:21:00,
2013-01-18 03:26:00,29.1,22.5,30.12,WNW,291,2.0,10.0,76,0.00,,CLR,0.00,VWS V13.01,2013-01-18 08:26:00,
2013-01-18 03:31:00,29.0,22.4,30.13,NW,308,7.0,8.0,76,0.00,,CLR,0.00,VWS V13.01,2013-01-18 08:31:00,
2013-01-18 03:36:00,28.7,21.5,30.14,WNW,293,13.0,16.0,74,0.00,,CLR,0.00,VWS V13.01,2013-01-18 08:36:00,
2013-01-18 03:41:00,28.4,20.5,30.15,NW,315,3.0,20.0,72,0.00,,CLR,0.00,VWS V13.01,2013-01-18 08:41:00,
2013-01-18 03:46:00,28.2,20.4,30.15,WNW,290,4.0,20.0,72,0.00,,CLR,0.00,VWS V13.01,2013-01-18 08:46:00,
2013-01-18 03:51:00,27.9,19.7,30.15,North,356,2.0,20.0,71,0.00,,CLR,0.00,VWS V13.01,2013-01-18 08:51:00,
2013-01-18 03:56:00,27.7,19.9,30.15,WSW,242,1.0,20.0,72,0.00,,CLR,0.00,VWS V13.01,2013-01-18 08:56:00,
2013-01-18 04:01:00,27.6,19.8,30.15,NW,311,0.0,9.0,72,0.00,,OVC070,0.00,VWS V13.01,2013-01-18 09:01:00,
2013-01-18 04:06:00,27.3,19.5,30.16,WNW,294,3.0,13.0,72,0.00,,OVC070,0.00,VWS V13.01,2013-01-18 09:06:00,
2013-01-18 04:11:00,27.2,19.4,30.16,NNW,334,3.0,13.0,72,0.00,,OVC070,0.00,VWS V13.01,2013-01-18 09:11:00,
2013-01-18 04:16:00,27.0,19.5,30.16,WNW,293,1.0,13.0,73,0.00,,OVC070,0.00,VWS V13.01,2013-01-18 09:16:00,
2013-01-18 04:21:00,26.9,19.1,30.16,NNW,327,2.0,13.0,72,0.00,,OVC070,0.00,VWS V13.01,2013-01-18 09:21:00,
2013-01-18 04:26:00,26.7,18.9,30.16,NW,310,6.0,13.0,72,0.00,,OVC070,0.00,VWS V13.01,2013-01-18 09:26:00,
2013-01-18 04:31:00,26.7,18.9,30.17,WNW,300,3.0,7.0,72,0.00,,OVC070,0.00,VWS V13.01,2013-01-18 09:31:00,
2013-01-18 04:36:00,26.6,18.1,30.17,NW,326,8.0,14.0,70,0.00,,OVC070,0.00,VWS V13.01,2013-01-18 09:36:00,
2013-01-18 04:41:00,26.6,18.1,30.17,West,272,0.0,14.0,70,0.00,,OVC070,0.00,VWS V13.01,2013-01-18 09:41:00,
2013-01-18 04:46:00,26.5,17.0,30.18,NW,307,8.0,14.0,67,0.00,,OVC070,0.00,VWS V13.01,2013-01-18 09:46:00,
2013-01-18 04:51:00,26.4,16.9,30.19,WNW,289,5.0,14.0,67,0.00,,OVC070,0.00,VWS V13.01,2013-01-18 09:51:00,
2013-01-18 04:56:00,26.3,17.5,30.20,NW,305,1.0,14.0,69,0.00,,OVC070,0.00,VWS V13.01,2013-01-18 09:56:00,
2013-01-18 05:01:00,26.2,17.1,30.20,WNW,301,1.0,6.0,68,0.00,,BKN060,0.00,VWS V13.01,2013-01-18 10:01:00,
2013-01-18 05:06:00,26.1,17.0,30.21,NW,316,5.0,11.0,68,0.00,,BKN060,0.00,VWS V13.01,2013-01-18 10:06:00,
2013-01-18 05:11:00,25.9,16.5,30.21,West,273,12.0,12.0,67,0.00,,BKN060,0.00,VWS V13.01,2013-01-18 10:11:00,
2013-01-18 05:16:00,25.8,16.4,30.22,NW,317,4.0,13.0,67,0.00,,BKN060,0.00,VWS V13.01,2013-01-18 10:16:00,
2013-01-18 05:21:00,25.5,15.7,30.22,WNW,301,2.0,14.0,66,0.00,,BKN060,0.00,VWS V13.01,2013-01-18 10:21:00,
2013-01-18 05:26:00,25.3,15.6,30.23,NW,325,9.0,14.0,66,0.00,,BKN060,0.00,VWS V13.01,2013-01-18 10:26:00,
2013-01-18 05:31:00,25.1,15.4,30.23,NE,52,7.0,8.0,66,0.00,,BKN060,0.00,VWS V13.01,2013-01-18 10:31:00,
2013-01-18 05:36:00,24.9,15.2,30.23,WNW,302,4.0,11.0,66,0.00,,BKN060,0.00,VWS V13.01,2013-01-18 10:36:00,
2013-01-18 05:41:00,24.6,14.5,30.23,NW,314,3.0,11.0,65,0.00,,BKN060,0.00,VWS V13.01,2013-01-18 10:41:00,
2013-01-18 05:46:00,24.4,14.7,30.24,WNW,302,2.0,11.0,66,0.00,,BKN060,0.00,VWS V13.01,2013-01-18 10:46:00,
2013-01-18 05:51:00,24.2,14.5,30.24,North,357,4.0,11.0,66,0.00,,BKN060,0.00,VWS V13.01,2013-01-18 10:51:00,
2013-01-18 05:56:00,24.0,14.6,30.24,WNW,301,3.0,11.0,67,0.00,,BKN060,0.00,VWS V13.01,2013-01-18 10:56:00,
2013-01-18 06:01:00,23.8,14.1,30.24,North,351,1.0,8.0,66,0.00,,OVC050,0.00,VWS V13.01,2013-01-18 11:01:00,
2013-01-18 06:06:00,23.6,14.3,30.25,NW,315,0.0,8.0,67,0.00,,OVC050,0.00,VWS V13.01,2013-01-18 11:06:00,
2013-01-18 06:11:00,23.5,13.8,30.25,North,8,1.0,8.0,66,0.00,,OVC050,0.00,VWS V13.01,2013-01-18 11:11:00,
2013-01-18 06:16:00,23.4,13.7,30.26,WNW,294,4.0,8.0,66,0.00,,OVC050,0.00,VWS V13.01,2013-01-18 11:16:00,
2013-01-18 06:21:00,23.3,14.0,30.27,NW,314,2.0,8.0,67,0.00,,OVC050,0.00,VWS V13.01,2013-01-18 11:21:00,
2013-01-18 06:26:00,23.2,13.5,30.27,NW,307,6.0,9.0,66,0.00,,OVC050,0.00,VWS V13.01,2013-01-18 11:26:00,
2013-01-18 06:31:00,23.1,13.4,30.27,WNW,296,4.0,8.0,66,0.00,,OVC050,0.00,VWS V13.01,2013-01-18 11:31:00,
2013-01-18 06:36:00,23.0,12.6,30.28,NW,306,3.0,13.0,64,0.00,,OVC050,0.00,VWS V13.01,2013-01-18 11:36:00,
2013-01-18 06:41:00,23.0,12.6,30.28,NW,314,3.0,13.0,64,0.00,,OVC050,0.00,VWS V13.01,2013-01-18 11:41:00,
2013-01-18 06:46:00,22.9,12.6,30.29,WNW,282,7.0,13.0,64,0.00,,OVC050,0.00,VWS V13.01,2013-01-18 11:46:00,
2013-01-18 06:51:00,22.8,12.1,30.29,NW,304,0.0,13.0,63,0.00,,OVC050,0.00,VWS V13.01,2013-01-18 11:51:00,
2013-01-18 06:56:00,22.8,12.1,30.30,NW,319,4.0,13.0,63,0.00,,OVC050,0.00,VWS V13.01,2013-01-18 11:56:00,
2013-01-18 07:01:00,22.7,12.0,30.30,NW,310,2.0,6.0,63,0.00,,OVC055,0.00,VWS V13.01,2013-01-18 12:01:00,
2013-01-18 07:06:00,22.7,12.4,30.31,West,276,5.0,6.0,64,0.00,,OVC055,0.00,VWS V13.01,2013-01-18 12:06:00,
2013-01-18 07:11:00,22.6,12.3,30.31,NNW,330,0.0,6.0,64,0.00,,OVC055,0.00,VWS V13.01,2013-01-18 12:11:00,
2013-01-18 07:16:00,22.6,11.6,30.31,NW,307,3.0,9.0,62,0.00,,OVC055,0.00,VWS V13.01,2013-01-18 12:16:00,
2013-01-18 07:21:00,22.6,12.3,30.31,WNW,289,1.0,9.0,64,0.00,,OVC055,0.00,VWS V13.01,2013-01-18 12:21:00,
2013-01-18 07:26:00,22.5,12.2,30.32,WNW,294,7.0,9.0,64,0.00,,OVC055,0.00,VWS V13.01,2013-01-18 12:26:00,
2013-01-18 07:31:00,22.4,11.7,30.32,West,279,4.0,7.0,63,0.00,,OVC055,0.00,VWS V13.01,2013-01-18 12:31:00,
2013-01-18 07:36:00,22.3,12.0,30.32,WNW,293,2.0,7.0,64,0.00,,OVC055,0.00,VWS V13.01,2013-01-18 12:36:00,
2013-01-18 07:41:00,22.2,11.9,30.33,WSW,241,1.0,7.0,64,0.00,,OVC055,0.00,VWS V13.01,2013-01-18 12:41:00,
2013-01-18 07:46:00,22.1,11.8,30.33,NW,319,3.0,7.0,64,0.00,,OVC055,0.00,VWS V13.01,2013-01-18 12:46:00,
2013-01-18 07:51:00,22.0,11.7,30.33,NW,314,0.0,8.0,64,0.00,,OVC055,0.00,VWS V13.01,2013-01-18 12:51:00,
2013-01-18 07:56:00,21.9,11.6,30.34,NW,317,3.0,8.0,64,0.00,,OVC055,0.00,VWS V13.01,2013-01-18 12:56:00,
2013-01-18 08:01:00,21.9,12.0,30.35,WNW,288,5.0,6.0,65,0.00,,OVC055,0.00,VWS V13.01,2013-01-18 13:01:00,
2013-01-18 08:06:00,21.9,12.0,30.35,NW,308,4.0,6.0,65,0.00,,OVC055,0.00,VWS V13.01,2013-01-18 13:06:00,
2013-01-18 08:11:00,21.8,11.9,30.35,WSW,252,0.0,6.0,65,0.00,,OVC055,0.00,VWS V13.01,2013-01-18 13:11:00,
2013-01-18 08:16:00,21.8,11.9,30.36,West,281,4.0,8.0,65,0.00,,OVC055,0.00,VWS V13.01,2013-01-18 13:16:00,
2013-01-18 08:21:00,21.8,11.9,30.36,West,279,4.0,8.0,65,0.00,,OVC055,0.00,VWS V13.01,2013-01-18 13:21:00,
2013-01-18 08:26:00,21.8,12.2,30.36,NW,319,1.0,8.0,66,0.00,,OVC055,0.00,VWS V13.01,2013-01-18 13:26:00,
2013-01-18 08:31:00,22.0,12.1,30.37,NW,304,0.0,4.0,65,0.00,,OVC055,0.00,VWS V13.01,2013-01-18 13:31:00,
2013-01-18 08:36:00,22.2,12.2,30.37,WNW,296,4.0,9.0,65,0.00,,OVC055,0.00,VWS V13.01,2013-01-18 13:36:00,
2013-01-18 08:41:00,22.3,12.3,30.38,WNW,285,2.0,9.0,65,0.00,,OVC055,0.00,VWS V13.01,2013-01-18 13:41:00,
2013-01-18 08:46:00,22.4,12.1,30.38,NW,310,6.0,10.0,64,0.00,,OVC055,0.00,VWS V13.01,2013-01-18 13:46:00,
2013-01-18 08:51:00,22.4,12.1,30.38,West,278,0.0,10.0,64,0.00,,OVC055,0.00,VWS V13.01,2013-01-18 13:51:00,
2013-01-18 08:56:00,22.3,12.0,30.39,NW,319,3.0,10.0,64,0.00,,OVC055,0.00,VWS V13.01,2013-01-18 13:56:00,
2013-01-18 09:01:00,22.3,12.0,30.39,WNW,294,6.0,7.0,64,0.00,,OVC045,0.00,VWS V13.01,2013-01-18 14:01:00,
2013-01-18 09:06:00,22.2,11.9,30.39,NW,320,0.0,10.0,64,0.00,,OVC045,0.00,VWS V13.01,2013-01-18 14:06:00,
2013-01-18 09:11:00,22.3,12.0,30.39,WNW,291,7.0,10.0,64,0.00,,OVC045,0.00,VWS V13.01,2013-01-18 14:11:00,
2013-01-18 09:16:00,22.4,11.7,30.40,NW,321,6.0,12.0,63,0.00,,OVC045,0.00,VWS V13.01,2013-01-18 14:16:00,
2013-01-18 09:21:00,22.5,12.2,30.40,West,272,5.0,12.0,64,0.00,,OVC045,0.00,VWS V13.01,2013-01-18 14:21:00,
2013-01-18 09:26:00,22.6,12.3,30.40,NW,321,0.0,12.0,64,0.00,,OVC045,0.00,VWS V13.01,2013-01-18 14:26:00,
2013-01-18 09:31:00,22.7,12.4,30.40,WNW,295,4.0,8.0,64,0.00,,BKN049,0.00,VWS V13.01,2013-01-18 14:31:00,
2013-01-18 09:36:00,22.8,12.5,30.40,WNW,298,1.0,8.0,64,0.00,,BKN049,0.00,VWS V13.01,2013-01-18 14:36:00,
2013-01-18 09:41:00,22.7,12.0,30.41,NW,325,2.0,9.0,63,0.00,,BKN049,0.00,VWS V13.01,2013-01-18 14:41:00,
2013-01-18 09:46:00,22.7,12.4,30.41,NW,315,10.0,10.0,64,0.00,,BKN049,0.00,VWS V13.01,2013-01-18 14:46:00,
2013-01-18 09:51:00,22.7,12.0,30.41,NW,307,1.0,10.0,63,0.00,,BKN049,0.00,VWS V13.01,2013-01-18 14:51:00,
2013-01-18 09:56:00,22.9,12.6,30.41,SW,235,0.0,10.0,64,0.00,,BKN049,0.00,VWS V13.01,2013-01-18 14:56:00,
2013-01-18 10:01:00,23.4,12.7,30.41,SW,219,3.0,5.0,63,0.00,,BKN049,0.00,VWS V13.01,2013-01-18 15:01:00,
2013-01-18 10:06:00,23.9,13.5,30.42,WSW,243,2.0,6.0,64,0.00,,BKN049,0.00,VWS V13.01,2013-01-18 15:06:00,
2013-01-18 10:11:00,24.7,14.3,30.42,WNW,299,1.0,6.0,64,0.00,,BKN049,0.00,VWS V13.01,2013-01-18 15:11:00,
2013-01-18 10:16:00,24.8,13.3,30.42,West,273,1.0,12.0,61,0.00,,BKN049,0.00,VWS V13.01,2013-01-18 15:16:00,
2013-01-18 10:21:00,24.9,13.4,30.42,WNW,297,3.0,12.0,61,0.00,,BKN049,0.00,VWS V13.01,2013-01-18 15:21:00,
2013-01-18 10:26:00,25.0,13.1,30.42,NW,319,3.0,12.0,60,0.00,,BKN049,0.00,VWS V13.01,2013-01-18 15:26:00,
2013-01-18 10:31:00,24.8,12.9,30.42,NNW,347,4.0,8.0,60,0.00,,BKN049,0.00,VWS V13.01,2013-01-18 15:31:00,
2013-01-18 10:36:00,24.7,12.8,30.42,NNW,348,4.0,8.0,60,0.00,,BKN049,0.00,VWS V13.01,2013-01-18 15:36:00,
2013-01-18 10:41:00,24.7,12.8,30.42,NNW,345,2.0,8.0,60,0.00,,BKN049,0.00,VWS V13.01,2013-01-18 15:41:00,
2013-01-18 10:46:00,24.5,12.6,30.43,WNW,296,2.0,8.0,60,0.00,,BKN049,0.00,VWS V13.01,2013-01-18 15:46:00,
2013-01-18 10:51:00,24.4,12.5,30.43,West,274,2.0,9.0,60,0.00,,BKN049,0.00,VWS V13.01,2013-01-18 15:51:00,
2013-01-18 10:56:00,24.3,11.7,30.43,NW,306,7.0,11.0,58,0.00,,BKN049,0.00,VWS V13.01,2013-01-18 15:56:00,
2013-01-18 11:01:00,24.4,12.1,30.43,NW,314,2.0,6.0,59,0.00,,BKN049,0.00,VWS V13.01,2013-01-18 16:01:00,
2013-01-18 11:06:00,24.4,12.1,30.43,NW,315,2.0,7.0,59,0.00,,FEW045,0.00,VWS V13.01,2013-01-18 16:06:00,
2013-01-18 11:11:00,24.6,12.3,30.42,NNW,331,0.0,7.0,59,0.00,,FEW045,0.00,VWS V13.01,2013-01-18 16:11:00,
2013-01-18 11:16:00,25.0,11.9,30.42,WNW,297,6.0,7.0,57,0.00,,FEW045,0.00,VWS V13.01,2013-01-18 16:16:00,
2013-01-18 11:21:00,25.1,10.8,30.42,NW,309,6.0,13.0,54,0.00,,FEW045,0.00,VWS V13.01,2013-01-18 16:21:00,
2013-01-18 11:26:00,25.4,11.1,30.42,WSW,242,2.0,13.0,54,0.00,,FEW045,0.00,VWS V13.01,2013-01-18 16:26:00,
2013-01-18 11:31:00,26.2,11.8,30.42,NW,309,4.0,5.0,54,0.00,,FEW045,0.00,VWS V13.01,2013-01-18 16:31:00,
2013-01-18 11:36:00,26.3,11.5,30.42,West,273,3.0,8.0,53,0.00,,FEW045,0.00,VWS V13.01,2013-01-18 16:36:00,
2013-01-18 11:41:00,26.1,11.7,30.42,NW,323,1.0,8.0,54,0.00,,FEW045,0.00,VWS V13.01,2013-01-18 16:41:00,
2013-01-18 11:46:00,26.2,11.8,30.42,NW,316,4.0,8.0,54,0.00,,FEW045,0.00,VWS V13.01,2013-01-18 16:46:00,
2013-01-18 11:51:00,26.1,11.7,30.41,WNW,296,2.0,8.0,54,0.00,,FEW045,0.00,VWS V13.01,2013-01-18 16:51:00,
2013-01-18 11:56:00,26.3,11.5,30.42,West,281,0.0,8.0,53,0.00,,FEW045,0.00,VWS V13.01,2013-01-18 16:56:00,
2013-01-18 12:01:00,26.9,12.9,30.41,West,274,3.0,3.0,55,0.00,,FEW045,0.00,VWS V13.01,2013-01-18 17:01:00,
2013-01-18 12:06:00,27.0,11.7,30.41,WSW,253,1.0,7.0,52,0.00,,FEW045,0.00,VWS V13.01,2013-01-18 17:06:00,
2013-01-18 12:11:00,27.1,11.8,30.41,WNW,300,0.0,7.0,52,0.00,,FEW045,0.00,VWS V13.01,2013-01-18 17:11:00,
2013-01-18 12:16:00,27.0,11.3,30.41,NW,307,1.0,8.0,51,0.00,,FEW045,0.00,VWS V13.01,2013-01-18 17:16:00,
2013-01-18 12:21:00,26.9,11.2,30.41,West,281,2.0,8.0,51,0.00,,FEW045,0.00,VWS V13.01,2013-01-18 17:21:00,
2013-01-18 12:26:00,26.7,11.0,30.41,WNW,285,3.0,9.0,51,0.00,,FEW045,0.00,VWS V13.01,2013-01-18 17:26:00,
2013-01-18 12:31:00,26.5,10.8,30.40,WNW,302,0.0,5.0,51,0.00,,FEW049,0.00,VWS V13.01,2013-01-18 17:31:00,
2013-01-18 12:36:00,26.2,10.6,30.40,WNW,289,3.0,7.0,51,0.00,,FEW049,0.00,VWS V13.01,2013-01-18 17:36:00,
2013-01-18 12:41:00,26.1,10.5,30.40,WNW,301,2.0,7.0,51,0.00,,FEW049,0.00,VWS V13.01,2013-01-18 17:41:00,
2013-01-18 12:46:00,26.3,10.6,30.39,West,273,3.0,7.0,51,0.00,,FEW049,0.00,VWS V13.01,2013-01-18 17:46:00,
2013-01-18 12:51:00,26.3,10.2,30.39,NW,325,4.0,11.0,50,0.00,,FEW049,0.00,VWS V13.01,2013-01-18 17:51:00,
2013-01-18 12:56:00,26.4,10.3,30.39,NW,313,2.0,11.0,50,0.00,,FEW049,0.00,VWS V13.01,2013-01-18 17:56:00,
2013-01-18 13:01:00,26.6,10.5,30.39,WNW,303,3.0,5.0,50,0.00,,FEW049,0.00,VWS V13.01,2013-01-18 18:01:00,
2013-01-18 13:06:00,27.2,11.5,30.40,WNW,282,0.0,5.0,51,0.00,,FEW049,0.00,VWS V13.01,2013-01-18 18:06:00,
2013-01-18 13:11:00,27.8,11.6,30.40,SW,231,1.0,5.0,50,0.00,,FEW049,0.00,VWS V13.01,2013-01-18 18:11:00,
2013-01-18 13:16:00,28.3,12.1,30.39,SSE,155,3.0,6.0,50,0.00,,FEW049,0.00,VWS V13.01,2013-01-18 18:16:00,
2013-01-18 13:21:00,28.9,12.6,30.40,SSW,196,7.0,7.0,50,0.00,,FEW049,0.00,VWS V13.01,2013-01-18 18:21:00,
2013-01-18 13:26:00,28.9,12.6,30.40,South,171,4.0,8.0,50,0.00,,FEW049,0.00,VWS V13.01,2013-01-18 18:26:00,
2013-01-18 13:31:00,29.6,14.1,30.39,SSE,153,0.0,1.0,52,0.00,,FEW049,0.00,VWS V13.01,2013-01-18 18:31:00,
2013-01-18 13:36:00,29.8,12.0,30.40,SW,221,1.0,7.0,47,0.00,,FEW049,0.00,VWS V13.01,2013-01-18 18:36:00,
2013-01-18 13:41:00,29.6,13.3,30.39,South,183,4.0,7.0,50,0.00,,FEW049,0.00,VWS V13.01,2013-01-18 18:41:00,
2013-01-18 13:46:00,30.0,12.2,30.39,SSW,194,4.0,7.0,47,0.00,,FEW049,0.00,VWS V13.01,2013-01-18 18:46:00,
2013-01-18 13:51:00,30.5,14.1,30.39,SSE,165,0.0,7.0,50,0.00,,FEW049,0.00,VWS V13.01,2013-01-18 18:51:00,
2013-01-18 13:56:00,31.3,14.4,30.39,SSE,149,2.0,7.0,49,0.00,,FEW049,0.00,VWS V13.01,2013-01-18 18:56:00,
2013-01-18 14:01:00,31.3,12.9,30.39,WSW,247,3.0,5.0,46,0.00,,CLR,0.00,VWS V13.01,2013-01-18 19:01:00,
2013-01-18 14:06:00,31.1,12.2,30.39,South,191,8.0,10.0,45,0.00,,CLR,0.00,VWS V13.01,2013-01-18 19:06:00,
2013-01-18 14:11:00,31.1,12.8,30.39,SW,216,0.0,10.0,46,0.00,,CLR,0.00,VWS V13.01,2013-01-18 19:11:00,
2013-01-18 14:16:00,30.7,11.9,30.39,SSW,202,8.0,10.0,45,0.00,,CLR,0.00,VWS V13.01,2013-01-18 19:16:00,
2013-01-18 14:21:00,30.3,12.0,30.39,SW,227,0.0,10.0,46,0.00,,CLR,0.00,VWS V13.01,2013-01-18 19:21:00,
2013-01-18 14:26:00,30.7,12.4,30.39,SSW,202,2.0,10.0,46,0.00,,CLR,0.00,VWS V13.01,2013-01-18 19:26:00,
2013-01-18 14:31:00,30.7,13.4,30.39,SSW,205,0.0,3.0,48,0.00,,CLR,0.00,VWS V13.01,2013-01-18 19:31:00,
2013-01-18 14:36:00,30.9,13.1,30.40,SW,215,2.0,5.0,47,0.00,,CLR,0.00,VWS V13.01,2013-01-18 19:36:00,
2013-01-18 14:41:00,30.9,12.1,30.40,SSW,213,7.0,9.0,45,0.00,,CLR,0.00,VWS V13.01,2013-01-18 19:41:00,
2013-01-18 14:46:00,30.9,12.1,30.40,WSW,238,2.0,9.0,45,0.00,,CLR,0.00,VWS V13.01,2013-01-18 19:46:00,
2013-01-18 14:51:00,30.6,11.8,30.40,SSW,200,7.0,9.0,45,0.00,,CLR,0.00,VWS V13.01,2013-01-18 19:51:00,
2013-01-18 14:56:00,30.7,13.4,30.40,SSE,156,1.0,9.0,48,0.00,,CLR,0.00,VWS V13.01,2013-01-18 19:56:00,
2013-01-18 15:01:00,30.9,13.5,30.40,South,178,2.0,6.0,48,0.00,,CLR,0.00,VWS V13.01,2013-01-18 20:01:00,
2013-01-18 15:06:00,26.0,8.6,30.40,South,189,5.0,9.0,47,0.00,,CLR,0.00,VWS V13.01,2013-01-18 20:06:00,
2013-01-18 15:11:00,30.9,12.6,30.40,SSW,193,5.0,9.0,46,0.00,,CLR,0.00,VWS V13.01,2013-01-18 20:11:00,
2013-01-18 15:16:00,30.8,12.5,30.39,SSW,196,4.0,9.0,46,0.00,,CLR,0.00,VWS V13.01,2013-01-18 20:16:00,
2013-01-18 15:21:00,30.6,12.3,30.39,SSW,195,3.0,9.0,46,0.00,,CLR,0.00,VWS V13.01,2013-01-18 20:21:00,
2013-01-18 15:26:00,30.5,12.2,30.39,SW,217,1.0,9.0,46,0.00,,CLR,0.00,VWS V13.01,2013-01-18 20:26:00,
2013-01-18 15:31:00,30.5,12.2,30.39,SW,230,0.0,2.0,46,0.00,,CLR,0.00,VWS V13.01,2013-01-18 20:31:00,
2013-01-18 15:36:00,30.8,13.0,30.39,SW,233,1.0,4.0,47,0.00,,CLR,0.00,VWS V13.01,2013-01-18 20:36:00,
2013-01-18 15:41:00,30.7,11.9,30.39,SSW,213,0.0,7.0,45,0.00,,CLR,0.00,VWS V13.01,2013-01-18 20:41:00,
2013-01-18 15:46:00,30.9,13.1,30.39,WSW,241,0.0,7.0,47,0.00,,CLR,0.00,VWS V13.01,2013-01-18 20:46:00,
2013-01-18 15:51:00,31.2,12.4,30.39,SSW,198,0.0,7.0,45,0.00,,CLR,0.00,VWS V13.01,2013-01-18 20:51:00,
2013-01-18 15:56:00,31.3,12.4,30.39,SSW,208,2.0,7.0,45,0.00,,CLR,0.00,VWS V13.01,2013-01-18 20:56:00,
2013-01-18 16:01:00,31.3,12.9,30.39,SW,218,3.0,4.0,46,0.00,,CLR,0.00,VWS V13.01,2013-01-18 21:01:00,
2013-01-18 16:06:00,31.3,13.4,30.39,SSW,192,0.0,6.0,47,0.00,,CLR,0.00,VWS V13.01,2013-01-18 21:06:00,
2013-01-18 16:11:00,31.3,12.9,30.40,SSW,196,3.0,7.0,46,0.00,,CLR,0.00,VWS V13.01,2013-01-18 21:11:00,
2013-01-18 16:16:00,31.1,12.2,30.40,SW,216,2.0,7.0,45,0.00,,CLR,0.00,VWS V13.01,2013-01-18 21:16:00,
2013-01-18 16:21:00,30.6,12.3,30.40,South,181,0.0,8.0,46,0.00,,CLR,0.00,VWS V13.01,2013-01-18 21:21:00,
2013-01-18 16:26:00,30.1,12.3,30.39,SSW,195,3.0,8.0,47,0.00,,CLR,0.00,VWS V13.01,2013-01-18 21:26:00,
2013-01-18 16:31:00,29.8,12.0,30.39,SSE,155,4.0,7.0,47,0.00,,CLR,0.00,VWS V13.01,2013-01-18 21:31:00,
2013-01-18 16:36:00,29.5,12.2,30.39,SSW,199,1.0,7.0,48,0.00,,CLR,0.00,VWS V13.01,2013-01-18 21:36:00,
2013-01-18 16:41:00,29.2,12.4,30.39,SSE,158,2.0,9.0,49,0.00,,CLR,0.00,VWS V13.01,2013-01-18 21:41:00,
2013-01-18 16:46:00,29.1,12.3,30.39,SSW,203,4.0,9.0,49,0.00,,CLR,0.00,VWS V13.01,2013-01-18 21:46:00,
2013-01-18 16:51:00,29.1,11.9,30.39,South,189,0.0,9.0,48,0.00,,CLR,0.00,VWS V13.01,2013-01-18 21:51:00,
2013-01-18 16:56:00,28.9,12.1,30.39,SSE,161,1.0,9.0,49,0.00,,CLR,0.00,VWS V13.01,2013-01-18 21:56:00,
2013-01-18 17:02:00,28.6,11.9,30.39,South,173,0.0,7.0,49,0.00,,CLR,0.00,VWS V13.01,2013-01-18 22:02:00,
2013-01-18 17:07:00,28.3,12.1,30.39,SSW,193,0.0,7.0,50,0.00,,CLR,0.00,VWS V13.01,2013-01-18 22:07:00,
2013-01-18 17:12:00,28.0,11.8,30.39,South,169,2.0,7.0,50,0.00,,CLR,0.00,VWS V13.01,2013-01-18 22:12:00,
2013-01-18 17:17:00,27.8,11.6,30.39,SW,216,1.0,7.0,50,0.00,,CLR,0.00,VWS V13.01,2013-01-18 22:17:00,
2013-01-18 17:22:00,27.6,11.4,30.39,SSW,193,4.0,7.0,50,0.00,,CLR,0.00,VWS V13.01,2013-01-18 22:22:00,
2013-01-18 17:27:00,27.4,11.2,30.39,SSE,168,1.0,7.0,50,0.00,,CLR,0.00,VWS V13.01,2013-01-18 22:27:00,
2013-01-18 17:32:00,27.2,11.9,30.39,SSE,168,2.0,5.0,52,0.00,,CLR,0.00,VWS V13.01,2013-01-18 22:32:00,
2013-01-18 17:37:00,27.0,11.7,30.39,SSE,167,3.0,5.0,52,0.00,,CLR,0.00,VWS V13.01,2013-01-18 22:37:00,
2013-01-18 17:42:00,26.7,11.4,30.39,SSE,160,2.0,6.0,52,0.00,,CLR,0.00,VWS V13.01,2013-01-18 22:42:00,
2013-01-18 17:47:00,26.5,11.7,30.39,South,187,0.0,8.0,53,0.00,,CLR,0.00,VWS V13.01,2013-01-18 22:47:00,
2013-01-18 17:52:00,26.3,11.5,30.40,South,169,0.0,8.0,53,0.00,,CLR,0.00,VWS V13.01,2013-01-18 22:52:00,
2013-01-18 17:57:00,26.1,11.3,30.40,South,178,7.0,9.0,53,0.00,,CLR,0.00,VWS V13.01,2013-01-18 22:57:00,
2013-01-18 18:02:00,26.0,11.2,30.40,South,190,3.0,8.0,53,0.00,,CLR,0.00,VWS V13.01,2013-01-18 23:02:00,
2013-01-18 18:07:00,25.9,11.1,30.40,South,181,2.0,8.0,53,0.00,,CLR,0.00,VWS V13.01,2013-01-18 23:07:00,
2013-01-18 18:12:00,25.8,11.5,30.40,South,171,0.0,8.0,54,0.00,,CLR,0.00,VWS V13.01,2013-01-18 23:12:00,
2013-01-18 18:17:00,25.7,11.4,30.40,South,170,3.0,8.0,54,0.00,,CLR,0.00,VWS V13.01,2013-01-18 23:17:00,
2013-01-18 18:22:00,25.5,11.2,30.40,South,187,2.0,9.0,54,0.00,,CLR,0.00,VWS V13.01,2013-01-18 23:22:00,
2013-01-18 18:27:00,25.4,11.1,30.40,SSW,204,0.0,9.0,54,0.00,,CLR,0.00,VWS V13.01,2013-01-18 23:27:00,
2013-01-18 18:32:00,25.3,11.0,30.39,SSE,150,1.0,7.0,54,0.00,,CLR,0.00,VWS V13.01,2013-01-18 23:32:00,
2013-01-18 18:37:00,25.2,10.9,30.39,SSE,159,4.0,9.0,54,0.00,,CLR,0.00,VWS V13.01,2013-01-18 23:37:00,
2013-01-18 18:42:00,25.1,11.2,30.39,SSE,159,0.0,9.0,55,0.00,,CLR,0.00,VWS V13.01,2013-01-18 23:42:00,
2013-01-18 18:47:00,25.0,10.7,30.39,SSE,168,0.0,9.0,54,0.00,,CLR,0.00,VWS V13.01,2013-01-18 23:47:00,
2013-01-18 18:52:00,24.9,11.0,30.40,South,185,4.0,9.0,55,0.00,,CLR,0.00,VWS V13.01,2013-01-18 23:52:00,
2013-01-18 18:57:00,24.8,10.5,30.39,South,169,2.0,9.0,54,0.00,,CLR,0.00,VWS V13.01,2013-01-18 23:57:00,
2013-01-18 19:02:00,24.8,10.5,30.39,SSE,161,1.0,11.0,54,0.00,,CLR,0.00,VWS V13.01,2013-01-19 00:02:00,
2013-01-18 19:07:00,24.8,10.1,30.38,SSE,154,2.0,11.0,53,0.00,,CLR,0.00,VWS V13.01,2013-01-19 00:07:00,
2013-01-18 19:12:00,24.8,10.1,30.38,South,169,2.0,11.0,53,0.00,,CLR,0.00,VWS V13.01,2013-01-19 00:12:00,
2013-01-18 19:17:00,24.8,10.1,30.38,SE,141,6.0,11.0,53,0.00,,CLR,0.00,VWS V13.01,2013-01-19 00:17:00,
2013-01-18 19:22:00,24.9,10.2,30.38,SE,135,2.0,11.0,53,0.00,,CLR,0.00,VWS V13.01,2013-01-19 00:22:00,
2013-01-18 19:27:00,24.8,10.1,30.37,SE,134,2.0,11.0,53,0.00,,CLR,0.00,VWS V13.01,2013-01-19 00:27:00,
2013-01-18 19:32:00,24.8,10.1,30.37,SE,137,3.0,5.0,53,0.00,,CLR,0.00,VWS V13.01,2013-01-19 00:32:00,
2013-01-18 19:37:00,24.9,9.8,30.37,SSE,168,0.0,8.0,52,0.00,,CLR,0.00,VWS V13.01,2013-01-19 00:37:00,
2013-01-18 19:42:00,25.0,9.4,30.38,SSW,204,0.0,8.0,51,0.00,,CLR,0.00,VWS V13.01,2013-01-19 00:42:00,
2013-01-18 19:47:00,25.0,9.9,30.38,SSW,195,0.0,8.0,52,0.00,,CLR,0.00,VWS V13.01,2013-01-19 00:47:00,
2013-01-18 19:52:00,24.9,9.8,30.38,South,174,3.0,9.0,52,0.00,,CLR,0.00,VWS V13.01,2013-01-19 00:52:00,
2013-01-18 19:57:00,24.9,9.8,30.37,South,183,4.0,9.0,52,0.00,,CLR,0.00,VWS V13.01,2013-01-19 00:57:00,
2013-01-18 20:02:00,24.9,10.2,30.37,SSE,168,1.0,4.0,53,0.00,,CLR,0.00,VWS V13.01,2013-01-19 01:02:00,
2013-01-18 20:07:00,24.8,9.7,30.37,SSE,168,3.0,4.0,52,0.00,,CLR,0.00,VWS V13.01,2013-01-19 01:07:00,
2013-01-18 20:12:00,24.8,9.7,30.37,SSE,168,1.0,7.0,52,0.00,,CLR,0.00,VWS V13.01,2013-01-19 01:12:00,
2013-01-18 20:17:00,24.8,10.1,30.37,South,176,0.0,7.0,53,0.00,,CLR,0.00,VWS V13.01,2013-01-19 01:17:00,
2013-01-18 20:22:00,24.8,10.5,30.37,South,176,0.0,7.0,54,0.00,,CLR,0.00,VWS V13.01,2013-01-19 01:22:00,
2013-01-18 20:27:00,24.6,11.6,30.36,South,176,0.0,7.0,57,0.00,,CLR,0.00,VWS V13.01,2013-01-19 01:27:00,
2013-01-18 20:32:00,24.4,11.4,30.37,South,176,0.0,0.0,57,0.00,,CLR,0.00,VWS V13.01,2013-01-19 01:32:00,
2013-01-18 20:37:00,24.1,12.2,30.36,South,176,0.0,1.0,60,0.00,,CLR,0.00,VWS V13.01,2013-01-19 01:37:00,
2013-01-18 20:42:00,23.7,11.5,30.36,WSW,249,0.0,3.0,59,0.00,,CLR,0.00,VWS V13.01,2013-01-19 01:42:00,
2013-01-18 20:47:00,23.6,11.4,30.36,SE,144,0.0,5.0,59,0.00,,CLR,0.00,VWS V13.01,2013-01-19 01:47:00,
2013-01-18 20:52:00,23.8,10.4,30.36,South,180,1.0,10.0,56,0.00,,CLR,0.00,VWS V13.01,2013-01-19 01:52:00,
2013-01-18 20:57:00,24.0,11.0,30.36,South,170,2.0,10.0,57,0.00,,CLR,0.00,VWS V13.01,2013-01-19 01:57:00,
2013-01-18 21:02:00,24.2,10.4,30.36,South,172,0.0,8.0,55,0.00,,CLR,0.00,VWS V13.01,2013-01-19 02:02:00,
2013-01-18 21:07:00,24.5,10.7,30.36,SSE,166,0.0,9.0,55,0.00,,CLR,0.00,VWS V13.01,2013-01-19 02:07:00,
2013-01-18 21:12:00,24.7,10.9,30.36,SE,146,4.0,9.0,55,0.00,,CLR,0.00,VWS V13.01,2013-01-19 02:12:00,
2013-01-18 21:17:00,24.8,10.5,30.36,SE,143,4.0,9.0,54,0.00,,CLR,0.00,VWS V13.01,2013-01-19 02:17:00,
2013-01-18 21:22:00,25.0,10.7,30.36,ESE,122,4.0,9.0,54,0.00,,CLR,0.00,VWS V13.01,2013-01-19 02:22:00,
2013-01-18 21:27:00,25.1,10.8,30.36,SE,140,5.0,9.0,54,0.00,,CLR,0.00,VWS V13.01,2013-01-19 02:27:00,
2013-01-18 21:32:00,25.2,10.5,30.35,South,177,2.0,5.0,53,0.00,,CLR,0.00,VWS V13.01,2013-01-19 02:32:00,
2013-01-18 21:37:00,25.2,10.9,30.35,SE,134,3.0,9.0,54,0.00,,CLR,0.00,VWS V13.01,2013-01-19 02:37:00,
2013-01-18 21:42:00,25.3,11.0,30.35,SSE,165,5.0,9.0,54,0.00,,CLR,0.00,VWS V13.01,2013-01-19 02:42:00,
2013-01-18 21:47:00,25.4,11.1,30.34,South,191,1.0,9.0,54,0.00,,CLR,0.00,VWS V13.01,2013-01-19 02:47:00,
2013-01-18 21:52:00,25.5,10.8,30.34,South,182,3.0,9.0,53,0.00,,CLR,0.00,VWS V13.01,2013-01-19 02:52:00,
2013-01-18 21:57:00,25.6,10.4,30.34,SSW,199,2.0,9.0,52,0.00,,CLR,0.00,VWS V13.01,2013-01-19 02:57:00,
2013-01-18 22:02:00,25.6,11.3,30.34,SSE,164,0.0,6.0,54,0.00,,CLR,0.00,VWS V13.01,2013-01-19 03:02:00,
2013-01-18 22:07:00,25.7,10.9,30.33,SE,144,2.0,11.0,53,0.00,,CLR,0.00,VWS V13.01,2013-01-19 03:07:00,
2013-01-18 22:12:00,25.7,11.4,30.33,SSE,168,3.0,11.0,54,0.00,,CLR,0.00,VWS V13.01,2013-01-19 03:12:00,
2013-01-18 22:17:00,25.8,11.5,30.33,SSE,165,0.0,11.0,54,0.00,,CLR,0.00,VWS V13.01,2013-01-19 03:17:00,
2013-01-18 22:22:00,25.7,11.4,30.32,South,171,3.0,11.0,54,0.00,,CLR,0.00,VWS V13.01,2013-01-19 03:22:00,
2013-01-18 22:27:00,25.8,11.5,30.32,South,170,2.0,11.0,54,0.00,,CLR,0.00,VWS V13.01,2013-01-19 03:27:00,
2013-01-18 22:32:00,25.8,11.5,30.33,South,170,0.0,0.0,54,0.00,,CLR,0.00,VWS V13.01,2013-01-19 03:32:00,
2013-01-18 22:37:00,25.8,11.9,30.32,South,170,0.0,4.0,55,0.00,,CLR,0.00,VWS V13.01,2013-01-19 03:37:00,
2013-01-18 22:42:00,25.6,12.5,30.32,South,170,1.0,4.0,57,0.00,,CLR,0.00,VWS V13.01,2013-01-19 03:42:00,
2013-01-18 22:47:00,25.2,13.3,30.32,South,170,0.0,4.0,60,0.00,,CLR,0.00,VWS V13.01,2013-01-19 03:47:00,
2013-01-18 22:52:00,24.9,13.7,30.32,South,170,0.0,4.0,62,0.00,,CLR,0.00,VWS V13.01,2013-01-19 03:52:00,
2013-01-18 22:57:00,24.4,13.6,30.32,South,170,0.0,4.0,63,0.00,,CLR,0.00,VWS V13.01,2013-01-19 03:57:00,
2013-01-18 23:02:00,24.0,13.2,30.32,South,170,0.0,0.0,63,0.00,,CLR,0.00,VWS V13.01,2013-01-19 04:02:00,
2013-01-18 23:07:00,23.7,13.3,30.31,South,170,0.0,1.0,64,0.00,,CLR,0.00,VWS V13.01,2013-01-19 04:07:00,
2013-01-18 23:12:00,23.5,12.8,30.31,South,170,0.0,1.0,63,0.00,,CLR,0.00,VWS V13.01,2013-01-19 04:12:00,
2013-01-18 23:17:00,23.3,12.9,30.31,South,170,0.0,2.0,64,0.00,,CLR,0.00,VWS V13.01,2013-01-19 04:17:00,
2013-01-18 23:22:00,23.1,13.1,30.31,South,170,0.0,2.0,65,0.00,,CLR,0.00,VWS V13.01,2013-01-19 04:22:00,
2013-01-18 23:27:00,22.8,13.2,30.31,South,170,0.0,2.0,66,0.00,,CLR,0.00,VWS V13.01,2013-01-19 04:27:00,
2013-01-18 23:33:00,22.6,13.3,30.31,South,170,0.0,0.0,67,0.00,,CLR,0.00,VWS V13.01,2013-01-19 04:33:00,
2013-01-18 23:38:00,22.3,13.4,30.30,South,170,0.0,0.0,68,0.00,,CLR,0.00,VWS V13.01,2013-01-19 04:38:00,
2013-01-18 23:43:00,22.0,13.4,30.30,South,170,0.0,1.0,69,0.00,,CLR,0.00,VWS V13.01,2013-01-19 04:43:00,
2013-01-18 23:48:00,21.8,13.5,30.30,South,170,0.0,1.0,70,0.00,,CLR,0.00,VWS V13.01,2013-01-19 04:48:00,
2013-01-18 23:53:00,21.5,12.9,30.30,South,170,0.0,1.0,69,0.00,,CLR,0.00,VWS V13.01,2013-01-19 04:53:00,
2013-01-18 23:58:00,21.2,13.0,30.30,South,170,1.0,1.0,70,0.00,,CLR,0.00,VWS V13.01,2013-01-19 04:58:00,